sat.trackr.live / text

‹ back to catalog

STARLINK-1579

NORAD 46083 · 2020-055BJ

PAYLOAD ACTIVE UNKNOWN

§ Identity

Operator
Country
US
Launch date
2020-08-07
Launch site
AFETR
Launch vehicle
Mass (kg)
RCS (m²)

Purposes: comms

External: N2YO · Heavens-Above · Gunter

§ Orbital elements

Epoch: 2026-09-20T01:29:45.293856Z

Period
94.01 min
Inclination
53.1586°
Eccentricity
0.0001496
Mean motion
15.31699115 rev/d
Perigee alt
469.7 km
Apogee alt
471.8 km
Semi-major
6,848.9 km
B*
3.7194e-5
RAAN
276.6157°
Arg perigee
93.6536°
Mean anomaly
266.4637°
Rev number
33,901

§ Raw data

STARLINK-15791 46083U 20055BJ  26263.06232979  .00000789  00000+0  37194-4 0  99912 46083  53.1586 276.6157 0001496  93.6536 266.4637 15.31699115339018

JSON: /api/v1/satellites/46083 · /tle

For live sub-satellite position, see the globe view (requires WebGL).

§ Visibility from observer

Set your observer location to see the next 7 days of passes ≥ 10°. The values pass through the URL so the page stays shareable.

No JS? Fill the form by hand. The geolocation button needs JavaScript.